| time (UTC) | temp C | wind direction | speed KPH | gust KPH | rain 1hr cm | rain 24hr cm | rain mn cm | humidity % | barometer mb |
| 20260507183421 | 20 | 207 | 0.0 | 0.0 | 0.00 | 0.00 | 0.00 | 100 | 1011.2 |
| 20260507182934 | 20 | 199 | 0.0 | 0.0 | 0.00 | 0.00 | 0.00 | 100 | 1011.0 |
| 20260507182422 | 20 | 201 | 0.0 | 0.0 | 0.00 | 0.00 | 0.00 | 100 | 1011.1 |
| 20260507181933 | 20 | 206 | 0.0 | 0.0 | 0.00 | 0.00 | 0.00 | 100 | 1011.2 |
| 20260507181447 | 20 | 203 | 0.0 | 0.0 | 0.00 | 0.00 | 0.00 | 100 | 1011.0 |
| 20260507180939 | 20 | 203 | 0.0 | 0.0 | 0.00 | 0.00 | 0.00 | 100 | 1011.0 |
| 20260507180418 | 20 | 209 | 0.0 | 0.0 | 0.00 | 0.00 | 0.00 | 100 | 1011.0 |
| 20260507175936 | 20 | 201 | 0.0 | 0.0 | 0.00 | 0.00 | 0.00 | 100 | 1011.2 |
| 20260507175437 | 20 | 202 | 0.0 | 0.0 | 0.00 | 0.00 | 0.00 | 100 | 1011.2 |
| 20260507174947 | 20 | 203 | 0.0 | 0.0 | 0.00 | 0.00 | 0.00 | 100 | 1011.1 |
| 20260507174418 | 20 | 207 | 0.0 | 0.0 | 0.00 | 0.00 | 0.00 | 100 | 1011.2 |
| 20260507173928 | 21 | 203 | 0.0 | 0.0 | 0.00 | 0.00 | 0.00 | 100 | 1011.1 |
| 20260507173434 | 20 | 202 | 1.6 | 0.0 | 0.00 | 0.00 | 0.00 | 100 | 1011.0 |
| 20260507172926 | 21 | 198 | 0.0 | 0.0 | 0.00 | 0.00 | 0.00 | 100 | 1011.0 |
| 20260507172455 | 21 | 202 | 0.0 | 0.0 | 0.00 | 0.00 | 0.00 | 100 | 1011.1 |
| 20260507171931 | 21 | 202 | 0.0 | 0.0 | 0.00 | 0.00 | 0.00 | 100 | 1011.0 |
| 20260507171448 | 21 | 198 | 0.0 | 0.0 | 0.00 | 0.00 | 0.00 | 100 | 1011.1 |
| 20260507171000 | 21 | 195 | 0.0 | 0.0 | 0.00 | 0.00 | 0.00 | 100 | 1011.1 |
| 20260507170426 | 21 | 196 | 0.0 | 0.0 | 0.00 | 0.00 | 0.00 | 100 | 1011.2 |
| 20260507165936 | 21 | 190 | 0.0 | 0.0 | 0.00 | 0.00 | 0.00 | 100 | 1011.1 |
| 20260507165426 | 21 | 195 | 1.6 | 0.0 | 0.00 | 0.00 | 0.00 | 100 | 1011.1 |
| 20260507164925 | 21 | 183 | 0.0 | 0.0 | 0.00 | 0.00 | 0.00 | 100 | 1011.1 |
| 20260507164432 | 21 | 175 | 0.0 | 0.0 | 0.00 | 0.00 | 0.00 | 100 | 1011.0 |
| 20260507163942 | 21 | 178 | 0.0 | 0.0 | 0.00 | 0.00 | 0.00 | 100 | 1011.0 |
| 20260507163440 | 21 | 193 | 1.6 | 0.0 | 0.00 | 0.00 | 0.00 | 100 | 1011.0 |
| 20260507162945 | 21 | 196 | 0.0 | 0.0 | 0.00 | 0.00 | 0.00 | 96 | 1011.0 |
| 20260507162420 | 21 | 225 | 0.0 | 0.0 | 0.00 | 0.00 | 0.00 | 93 | 1011.1 |
| 20260507161950 | 22 | 229 | 0.0 | 0.0 | 0.00 | 0.00 | 0.00 | 90 | 1011.2 |
| 20260507161427 | 22 | 227 | 0.0 | 0.0 | 0.00 | 0.00 | 0.00 | 89 | 1011.1 |
| 20260507161000 | 21 | 221 | 0.0 | 0.0 | 0.00 | 0.00 | 0.00 | 89 | 1011.2 |
| 20260507160431 | 21 | 227 | 0.0 | 0.0 | 0.00 | 0.00 | 0.00 | 90 | 1011.3 |
| 20260507155920 | 21 | 227 | 0.0 | 0.0 | 0.00 | 0.00 | 0.00 | 90 | 1011.4 |
| 20260507155428 | 21 | 217 | 0.0 | 0.0 | 0.00 | 0.00 | 0.00 | 91 | 1011.5 |
| 20260507154919 | 21 | 219 | 0.0 | 0.0 | 0.00 | 0.00 | 0.00 | 92 | 1011.6 |
| 20260507154431 | 21 | 217 | 0.0 | 0.0 | 0.00 | 0.00 | 0.00 | 90 | 1011.7 |
| 20260507153956 | 21 | 222 | 0.0 | 0.0 | 0.00 | 0.00 | 0.00 | 91 | 1011.5 |
| 20260507153447 | 21 | 224 | 0.0 | 0.0 | 0.00 | 0.00 | 0.00 | 93 | 1011.5 |
| 20260507152936 | 21 | 225 | 0.0 | 0.0 | 0.00 | 0.00 | 0.00 | 94 | 1011.5 |
| 20260507152421 | 22 | 225 | 0.0 | 0.0 | 0.00 | 0.00 | 0.00 | 96 | 1011.7 |
| 20260507151932 | 21 | 222 | 0.0 | 0.0 | 0.00 | 0.00 | 0.00 | 94 | 1011.6 |
| 20260507151450 | 21 | 225 | 0.0 | 0.0 | 0.00 | 0.00 | 0.00 | 96 | 1011.7 |
| 20260507150940 | 21 | 223 | 0.0 | 0.0 | 0.00 | 0.00 | 0.00 | 96 | 1011.7 |
| 20260507150418 | 21 | 215 | 0.0 | 0.0 | 0.00 | 0.00 | 0.00 | 96 | 1011.8 |
| 20260507145942 | 21 | 214 | 0.0 | 0.0 | 0.00 | 0.00 | 0.00 | 100 | 1011.9 |
| 20260507145429 | 21 | 215 | 0.0 | 0.0 | 0.00 | 0.00 | 0.00 | 100 | 1012.0 |
| 20260507144921 | 21 | 213 | 0.0 | 0.0 | 0.00 | 0.00 | 0.00 | 100 | 1012.0 |
| 20260507144419 | 21 | 210 | 0.0 | 0.0 | 0.00 | 0.00 | 0.00 | 100 | 1012.0 |
| 20260507143951 | 21 | 211 | 0.0 | 0.0 | 0.00 | 0.00 | 0.00 | 100 | 1012.0 |
| 20260507143421 | 22 | 204 | 0.0 | 0.0 | 0.00 | 0.00 | 0.00 | 100 | 1012.1 |
| 20260507142939 | 22 | 206 | 0.0 | 0.0 | 0.00 | 0.00 | 0.00 | 100 | 1012.1 |
| 20260507142423 | 22 | 197 | 0.0 | 0.0 | 0.00 | 0.00 | 0.00 | 100 | 1012.1 |
| 20260507141936 | 22 | 204 | 0.0 | 0.0 | 0.00 | 0.00 | 0.00 | 100 | 1012.1 |
| 20260507141431 | 22 | 200 | 0.0 | 0.0 | 0.00 | 0.00 | 0.00 | 100 | 1012.2 |
| 20260507140939 | 22 | 200 | 0.0 | 0.0 | 0.00 | 0.00 | 0.00 | 100 | 1012.3 |
| 20260507140428 | 22 | 202 | 0.0 | 0.0 | 0.00 | 0.00 | 0.00 | 100 | 1012.4 |
| 20260507135941 | 22 | 196 | 0.0 | 0.0 | 0.00 | 0.00 | 0.00 | 100 | 1012.3 |
| 20260507135423 | 22 | 194 | 0.0 | 0.0 | 0.00 | 0.00 | 0.00 | 100 | 1012.5 |
| 20260507134954 | 22 | 197 | 0.0 | 0.0 | 0.00 | 0.00 | 0.00 | 100 | 1012.6 |
| 20260507134426 | 22 | 196 | 0.0 | 0.0 | 0.00 | 0.00 | 0.00 | 100 | 1012.5 |
| 20260507133933 | 21 | 193 | 0.0 | 0.0 | 0.00 | 0.00 | 0.00 | 100 | 1012.7 |
| 20260507133421 | 21 | 192 | 1.6 | 0.0 | 0.00 | 0.00 | 0.00 | 100 | 1012.7 |
| 20260507132935 | 21 | 191 | 4.8 | 0.0 | 0.00 | 0.00 | 0.00 | 100 | 1012.7 |
| 20260507132440 | 21 | 202 | 1.6 | 0.0 | 0.00 | 0.00 | 0.00 | 100 | 1012.8 |
| 20260507131936 | 21 | 202 | 3.2 | 0.0 | 0.00 | 0.00 | 0.00 | 100 | 1012.7 |
| 20260507131429 | 22 | 234 | 1.6 | 0.0 | 0.00 | 0.00 | 0.00 | 100 | 1012.9 |
| 20260507130938 | 22 | 234 | 1.6 | 0.0 | 0.00 | 0.00 | 0.00 | 100 | 1012.9 |
| 20260507130458 | 22 | 237 | 0.0 | 0.0 | 0.00 | 0.00 | 0.00 | 100 | 1013.0 |
| 20260507125928 | 22 | 245 | 3.2 | 0.0 | 0.00 | 0.00 | 0.00 | 100 | 1013.1 |
| 20260507125423 | 22 | 251 | 0.0 | 0.0 | 0.00 | 0.00 | 0.00 | 100 | 1013.1 |
| 20260507124934 | 22 | 248 | 0.0 | 0.0 | 0.00 | 0.00 | 0.00 | 100 | 1013.1 |
| 20260507124427 | 22 | 259 | 0.0 | 0.0 | 0.00 | 0.00 | 0.00 | 100 | 1013.2 |
| 20260507123940 | 22 | 263 | 0.0 | 0.0 | 0.00 | 0.00 | 0.00 | 100 | 1013.3 |
| 20260507123451 | 22 | 260 | 0.0 | 0.0 | 0.00 | 0.00 | 0.00 | 100 | 1013.3 |
| 20260507122923 | 21 | 261 | 0.0 | 0.0 | 0.00 | 0.00 | 0.00 | 100 | 1013.4 |
| 20260507122456 | 21 | 267 | 0.0 | 0.0 | 0.00 | 0.00 | 0.00 | 100 | 1013.3 |
| 20260507121933 | 22 | 260 | 0.0 | 0.0 | 0.00 | 0.00 | 0.00 | 100 | 1013.4 |
| 20260507121427 | 22 | 255 | 4.8 | 0.0 | 0.00 | 0.00 | 0.00 | 100 | 1013.5 |
| 20260507120939 | 22 | 254 | 0.0 | 0.0 | 0.00 | 0.00 | 0.00 | 100 | 1013.4 |
| 20260507120428 | 22 | 253 | 0.0 | 0.0 | 0.00 | 0.00 | 0.00 | 100 | 1013.3 |
| 20260507115934 | 22 | 260 | 0.0 | 0.0 | 0.00 | 0.00 | 0.00 | 100 | 1013.7 |
| 20260507115424 | 22 | 252 | 0.0 | 0.0 | 0.00 | 0.00 | 0.00 | 100 | 1013.7 |
| 20260507114934 | 22 | 232 | 0.0 | 0.0 | 0.00 | 0.00 | 0.00 | 100 | 1013.5 |
| 20260507114426 | 22 | 235 | 0.0 | 0.0 | 0.00 | 0.00 | 0.00 | 100 | 1013.5 |
| 20260507113950 | 22 | 232 | 0.0 | 0.0 | 0.00 | 0.00 | 0.00 | 100 | 1013.5 |
| 20260507113435 | 22 | 234 | 0.0 | 0.0 | 0.00 | 0.00 | 0.00 | 100 | 1013.5 |
| 20260507112920 | 22 | 232 | 0.0 | 0.0 | 0.00 | 0.00 | 0.00 | 100 | 1013.7 |
| 20260507112429 | 22 | 233 | 0.0 | 0.0 | 0.00 | 0.00 | 0.00 | 100 | 1013.7 |
| 20260507111922 | 22 | 236 | 0.0 | 0.0 | 0.00 | 0.00 | 0.00 | 100 | 1013.8 |
| 20260507111436 | 22 | 233 | 0.0 | 0.0 | 0.00 | 0.00 | 0.00 | 100 | 1013.8 |
| 20260507110946 | 22 | 236 | 1.6 | 0.0 | 0.00 | 0.00 | 0.00 | 100 | 1013.8 |
| 20260507110418 | 22 | 237 | 0.0 | 0.0 | 0.00 | 0.00 | 0.00 | 100 | 1013.9 |
| 20260507105930 | 22 | 231 | 0.0 | 0.0 | 0.00 | 0.00 | 0.00 | 100 | 1014.0 |
| 20260507105419 | 22 | 234 | 0.0 | 0.0 | 0.00 | 0.00 | 0.00 | 100 | 1014.1 |
| 20260507104929 | 22 | 238 | 0.0 | 0.0 | 0.00 | 0.00 | 0.00 | 100 | 1014.1 |
| 20260507104423 | 22 | 228 | 0.0 | 0.0 | 0.00 | 0.00 | 0.00 | 100 | 1014.2 |
| 20260507103923 | 22 | 187 | 0.0 | 0.0 | 0.00 | 0.00 | 0.00 | 100 | 1014.3 |
| 20260507103435 | 22 | 184 | 0.0 | 0.0 | 0.00 | 0.00 | 0.00 | 100 | 1014.4 |
| 20260507102951 | 22 | 303 | 1.6 | 0.0 | 0.00 | 0.00 | 0.00 | 100 | 1014.3 |
| 20260507102436 | 22 | 315 | 0.0 | 0.0 | 0.00 | 0.00 | 0.00 | 100 | 1014.4 |
| 20260507102017 | 21 | 310 | 3.2 | 0.0 | 0.00 | 0.00 | 0.00 | 100 | 1014.4 |
| 20260507101430 | 21 | 305 | 1.6 | 0.0 | 0.00 | 0.00 | 0.00 | 100 | 1014.6 |
| 20260507101002 | 21 | 311 | 8.0 | 0.0 | 0.00 | 0.00 | 0.00 | 100 | 1014.5 |
| 20260507100442 | 21 | 307 | 3.2 | 0.0 | 0.00 | 0.00 | 0.00 | 100 | 1014.5 |
| 20260507095928 | 21 | 308 | 3.2 | 0.0 | 0.00 | 0.00 | 0.00 | 100 | 1014.5 |
| 20260507095432 | 21 | 200 | 0.0 | 0.0 | 0.00 | 0.00 | 0.00 | 100 | 1014.4 |
| 20260507094923 | 21 | 208 | 8.0 | 0.0 | 0.00 | 0.00 | 0.00 | 100 | 1014.4 |
| 20260507094435 | 21 | 203 | 3.2 | 0.0 | 0.00 | 0.00 | 0.00 | 100 | 1014.3 |
| 20260507093927 | 21 | 207 | 4.8 | 0.0 | 0.00 | 0.00 | 0.00 | 100 | 1014.2 |
| 20260507093429 | 21 | 206 | 8.0 | 0.0 | 0.00 | 0.00 | 0.00 | 100 | 1014.2 |
| 20260507092935 | 21 | 204 | 6.4 | 0.0 | 0.00 | 0.00 | 0.00 | 100 | 1014.3 |
| 20260507092421 | 21 | 201 | 1.6 | 0.0 | 0.00 | 0.00 | 0.00 | 100 | 1014.2 |
| 20260507091921 | 21 | 208 | 8.0 | 0.0 | 0.00 | 0.00 | 0.00 | 100 | 1014.1 |
| 20260507091454 | 21 | 207 | 3.2 | 0.0 | 0.00 | 0.00 | 0.00 | 100 | 1014.0 |
| 20260507090941 | 21 | 215 | 4.8 | 0.0 | 0.00 | 0.00 | 0.00 | 100 | 1014.1 |
| 20260507090430 | 21 | 207 | 6.4 | 0.0 | 0.00 | 0.00 | 0.00 | 100 | 1014.0 |
| 20260507085936 | 21 | 203 | 3.2 | 0.0 | 0.00 | 0.00 | 0.00 | 100 | 1014.1 |
| 20260507085431 | 21 | 202 | 0.0 | 0.0 | 0.00 | 0.00 | 0.00 | 100 | 1014.2 |
| 20260507084923 | 21 | 205 | 3.2 | 0.0 | 0.00 | 0.00 | 0.00 | 100 | 1014.1 |
| 20260507084432 | 21 | 200 | 0.0 | 0.0 | 0.00 | 0.00 | 0.00 | 100 | 1014.2 |
| 20260507083923 | 21 | 205 | 3.2 | 0.0 | 0.00 | 0.00 | 0.00 | 100 | 1014.3 |
| 20260507083436 | 21 | 209 | 6.4 | 0.0 | 0.00 | 0.00 | 0.00 | 100 | 1014.2 |
| 20260507082931 | 21 | 240 | 6.4 | 0.0 | 0.00 | 0.00 | 0.00 | 100 | 1014.2 |
| 20260507082437 | 21 | 252 | 4.8 | 0.0 | 0.00 | 0.00 | 0.00 | 100 | 1014.3 |
| 20260507081934 | 21 | 244 | 0.0 | 0.0 | 0.00 | 0.00 | 0.00 | 100 | 1014.4 |
| 20260507081425 | 21 | 243 | 3.2 | 0.0 | 0.00 | 0.00 | 0.00 | 100 | 1014.4 |
| 20260507080955 | 21 | 249 | 0.0 | 0.0 | 0.00 | 0.00 | 0.00 | 100 | 1014.3 |
| 20260507080424 | 21 | 244 | 0.0 | 0.0 | 0.00 | 0.00 | 0.00 | 100 | 1014.4 |
| 20260507075934 | 21 | 248 | 3.2 | 0.0 | 0.00 | 0.00 | 0.00 | 100 | 1014.5 |
| 20260507075427 | 21 | 242 | 0.0 | 0.0 | 0.00 | 0.00 | 0.00 | 100 | 1014.4 |
| 20260507074922 | 21 | 245 | 0.0 | 0.0 | 0.00 | 0.00 | 0.00 | 100 | 1014.6 |
| 20260507074426 | 20 | 244 | 3.2 | 0.0 | 0.00 | 0.00 | 0.00 | 100 | 1014.7 |
| 20260507073920 | 20 | 243 | 4.8 | 0.0 | 0.00 | 0.00 | 0.00 | 100 | 1014.7 |
| 20260507073417 | 20 | 265 | 4.8 | 0.0 | 0.00 | 0.00 | 0.00 | 100 | 1014.8 |
| 20260507072930 | 20 | 37 | 0.0 | 0.0 | 0.00 | 0.00 | 0.00 | 100 | 1014.8 |
| 20260507072440 | 20 | 39 | 0.0 | 0.0 | 0.00 | 0.00 | 0.00 | 100 | 1014.7 |
| 20260507071929 | 20 | 34 | 0.0 | 0.0 | 0.00 | 0.00 | 0.00 | 100 | 1014.6 |
| 20260507071425 | 19 | 31 | 0.0 | 0.0 | 0.00 | 0.00 | 0.00 | 100 | 1014.6 |
| 20260507070955 | 19 | 29 | 0.0 | 0.0 | 0.00 | 0.00 | 0.00 | 100 | 1014.6 |
| 20260507070448 | 19 | 33 | 0.0 | 0.0 | 0.00 | 0.00 | 0.00 | 100 | 1014.5 |
| 20260507065925 | 19 | 32 | 0.0 | 0.0 | 0.00 | 0.00 | 0.00 | 100 | 1014.4 |
| 20260507065428 | 20 | 35 | 0.0 | 0.0 | 0.00 | 0.00 | 0.00 | 100 | 1014.4 |
| 20260507064942 | 20 | 33 | 0.0 | 0.0 | 0.00 | 0.00 | 0.00 | 100 | 1014.4 |
| 20260507064432 | 20 | 32 | 1.6 | 0.0 | 0.00 | 0.00 | 0.00 | 100 | 1014.4 |
| 20260507063938 | 19 | 37 | 0.0 | 0.0 | 0.00 | 0.00 | 0.00 | 100 | 1014.4 |
| 20260507063428 | 18 | 25 | 1.6 | 0.0 | 0.00 | 0.00 | 0.00 | 100 | 1014.5 |
| 20260507062942 | 19 | 31 | 3.2 | 0.0 | 0.00 | 0.00 | 0.00 | 100 | 1014.4 |
| 20260507062421 | 19 | 41 | 3.2 | 0.0 | 0.00 | 0.00 | 0.00 | 100 | 1014.2 |
| 20260507061937 | 19 | 34 | 3.2 | 0.0 | 0.00 | 0.00 | 0.00 | 100 | 1014.2 |
| 20260507061430 | 18 | 36 | 3.2 | 0.0 | 0.00 | 0.00 | 0.00 | 100 | 1014.3 |
| 20260507060939 | 18 | 30 | 6.4 | 0.0 | 0.00 | 0.00 | 0.00 | 100 | 1014.3 |
| 20260507060432 | 18 | 31 | 0.0 | 0.0 | 0.00 | 0.00 | 0.00 | 100 | 1014.3 |
| 20260507055927 | 18 | 29 | 3.2 | 0.0 | 0.00 | 0.00 | 0.00 | 100 | 1014.3 |
| 20260507055432 | 17 | 25 | 3.2 | 0.0 | 0.00 | 0.00 | 0.00 | 100 | 1014.5 |
| 20260507054925 | 17 | 35 | 3.2 | 0.0 | 0.00 | 0.00 | 0.00 | 100 | 1014.6 |
| 20260507054457 | 16 | 37 | 1.6 | 0.0 | 0.00 | 0.00 | 0.00 | 100 | 1014.7 |
| 20260507053948 | 16 | 54 | 3.2 | 0.0 | 0.00 | 0.00 | 0.00 | 100 | 1014.6 |
| 20260507053422 | 16 | 49 | 4.8 | 0.0 | 0.00 | 0.00 | 0.00 | 100 | 1014.6 |
| 20260507052953 | 16 | 36 | 3.2 | 0.0 | 0.00 | 0.00 | 0.00 | 100 | 1014.5 |
| 20260507052427 | 16 | 28 | 3.2 | 0.0 | 0.00 | 0.00 | 0.00 | 100 | 1014.5 |
| 20260507051922 | 16 | 36 | 4.8 | 0.0 | 0.00 | 0.00 | 0.00 | 100 | 1014.6 |
| 20260507051433 | 16 | 33 | 3.2 | 0.0 | 0.00 | 0.00 | 0.00 | 100 | 1014.4 |
| 20260507050940 | 16 | 36 | 0.0 | 0.0 | 0.00 | 0.00 | 0.00 | 100 | 1014.4 |
| 20260507050428 | 16 | 40 | 0.0 | 0.0 | 0.00 | 0.00 | 0.00 | 100 | 1014.4 |
| 20260507045940 | 16 | 34 | 0.0 | 0.0 | 0.00 | 0.00 | 0.00 | 100 | 1014.3 |
| 20260507045426 | 16 | 35 | 0.0 | 0.0 | 0.00 | 0.00 | 0.00 | 100 | 1014.3 |
| 20260507044921 | 16 | 37 | 0.0 | 0.0 | 0.00 | 0.00 | 0.00 | 100 | 1014.4 |
| 20260507044419 | 16 | 34 | 1.6 | 0.0 | 0.00 | 0.00 | 0.00 | 100 | 1014.3 |
| 20260507043922 | 16 | 38 | 3.2 | 0.0 | 0.00 | 0.00 | 0.00 | 100 | 1014.2 |
| 20260507043432 | 16 | 36 | 3.2 | 0.0 | 0.00 | 0.00 | 0.00 | 100 | 1014.1 |
| 20260507042921 | 16 | 38 | 1.6 | 0.0 | 0.00 | 0.00 | 0.00 | 100 | 1014.1 |
| 20260507042430 | 16 | 42 | 0.0 | 0.0 | 0.00 | 0.00 | 0.00 | 100 | 1014.2 |
| 20260507041921 | 16 | 23 | 4.8 | 0.0 | 0.00 | 0.00 | 0.00 | 100 | 1014.1 |
| 20260507041434 | 16 | 48 | 4.8 | 0.0 | 0.00 | 0.00 | 0.00 | 100 | 1014.1 |
| 20260507041001 | 16 | 45 | 4.8 | 0.0 | 0.00 | 0.00 | 0.00 | 100 | 1014.1 |
| 20260507040450 | 16 | 32 | 8.0 | 0.0 | 0.00 | 0.00 | 0.00 | 100 | 1014.2 |
| 20260507035938 | 16 | 42 | 4.8 | 0.0 | 0.00 | 0.00 | 0.00 | 100 | 1014.2 |
| 20260507035428 | 15 | 72 | 4.8 | 0.0 | 0.00 | 0.00 | 0.00 | 100 | 1014.2 |
| 20260507034922 | 16 | 48 | 1.6 | 0.0 | 0.00 | 0.00 | 0.00 | 100 | 1014.0 |
| 20260507034432 | 15 | 41 | 4.8 | 0.0 | 0.00 | 0.00 | 0.00 | 100 | 1014.0 |
| 20260507033928 | 15 | 32 | 1.6 | 0.0 | 0.00 | 0.00 | 0.00 | 100 | 1013.9 |
| 20260507033423 | 15 | 36 | 4.8 | 0.0 | 0.00 | 0.00 | 0.00 | 100 | 1014.0 |
| 20260507032937 | 15 | 41 | 4.8 | 0.0 | 0.00 | 0.00 | 0.00 | 100 | 1013.8 |
| 20260507032429 | 15 | 32 | 4.8 | 0.0 | 0.00 | 0.00 | 0.00 | 100 | 1013.9 |
| 20260507031945 | 16 | 40 | 3.2 | 0.0 | 0.00 | 0.00 | 0.00 | 100 | 1013.9 |
| 20260507031437 | 15 | 39 | 0.0 | 0.0 | 0.00 | 0.00 | 0.00 | 100 | 1013.8 |
| 20260507030941 | 15 | 35 | 3.2 | 0.0 | 0.00 | 0.00 | 0.00 | 100 | 1013.7 |
| 20260507030432 | 15 | 46 | 0.0 | 0.0 | 0.00 | 0.00 | 0.00 | 100 | 1013.5 |
| 20260507025921 | 16 | 38 | 4.8 | 0.0 | 0.00 | 0.00 | 0.00 | 100 | 1013.4 |
| 20260507025427 | 16 | 35 | 0.0 | 0.0 | 0.00 | 0.00 | 0.00 | 100 | 1013.4 |
| 20260507024956 | 16 | 259 | 0.0 | 0.0 | 0.00 | 0.00 | 0.00 | 100 | 1013.6 |
| 20260507024423 | 16 | 245 | 0.0 | 0.0 | 0.00 | 0.00 | 0.00 | 100 | 1013.5 |
| 20260507023951 | 16 | 243 | 0.0 | 0.0 | 0.00 | 0.00 | 0.00 | 100 | 1013.7 |
| 20260507023420 | 16 | 234 | 0.0 | 0.0 | 0.00 | 0.00 | 0.00 | 100 | 1013.7 |
| 20260507022930 | 16 | 237 | 0.0 | 0.0 | 0.00 | 0.00 | 0.00 | 100 | 1013.8 |
| 20260507022424 | 16 | 241 | 0.0 | 0.0 | 0.00 | 0.00 | 0.00 | 100 | 1013.9 |
| 20260507021939 | 16 | 232 | 0.0 | 0.0 | 0.00 | 0.00 | 0.00 | 100 | 1014.0 |
| 20260507021430 | 16 | 239 | 0.0 | 0.0 | 0.00 | 0.00 | 0.00 | 100 | 1014.0 |
| 20260507020939 | 16 | 234 | 0.0 | 0.0 | 0.00 | 0.00 | 0.00 | 100 | 1014.1 |
| 20260507020436 | 16 | 242 | 0.0 | 0.0 | 0.00 | 0.00 | 0.00 | 100 | 1014.0 |
| 20260507015939 | 16 | 242 | 0.0 | 0.0 | 0.00 | 0.00 | 0.00 | 100 | 1014.1 |
| 20260507015430 | 16 | 152 | 4.8 | 0.0 | 0.00 | 0.00 | 0.00 | 100 | 1014.0 |
| 20260507014921 | 16 | 149 | 3.2 | 0.0 | 0.00 | 0.00 | 0.00 | 100 | 1014.2 |
| 20260507014426 | 16 | 142 | 3.2 | 0.0 | 0.00 | 0.00 | 0.00 | 100 | 1014.3 |
| 20260507013934 | 16 | 39 | 1.6 | 0.0 | 0.00 | 0.00 | 0.00 | 100 | 1014.2 |
| 20260507013429 | 16 | 41 | 0.0 | 0.0 | 0.00 | 0.00 | 0.00 | 100 | 1014.2 |
| 20260507012921 | 17 | 45 | 0.0 | 0.0 | 0.00 | 0.00 | 0.00 | 100 | 1014.1 |
| 20260507012450 | 17 | 43 | 0.0 | 0.0 | 0.00 | 0.00 | 0.00 | 8 | 1014.3 |
| 20260507011920 | 17 | 39 | 0.0 | 0.0 | 0.00 | 0.00 | 0.00 | 19 | 1014.3 |
| 20260507011430 | 16 | 41 | 0.0 | 0.0 | 0.00 | 0.00 | 0.00 | 33 | 1014.3 |
| 20260507011002 | 16 | 42 | 0.0 | 0.0 | 0.00 | 0.00 | 0.00 | 31 | 1014.3 |
| 20260507010438 | 16 | 43 | 0.0 | 0.0 | 0.00 | 0.00 | 0.00 | 35 | 1014.2 |
| 20260507005931 | 16 | 39 | 0.0 | 0.0 | 0.00 | 0.00 | 0.00 | 33 | 1014.2 |
| 20260507005429 | 16 | 41 | 0.0 | 0.0 | 0.00 | 0.00 | 0.00 | 21 | 1014.2 |
| 20260507004925 | 16 | 44 | 0.0 | 0.0 | 0.00 | 0.00 | 0.00 | 6 | 1014.0 |
| 20260507004456 | 17 | 43 | 0.0 | 0.0 | 0.00 | 0.00 | 0.00 | 2 | 1014.1 |
| 20260507003927 | 17 | 42 | 0.0 | 0.0 | 0.00 | 0.00 | 0.00 | 1 | 1014.0 |
| 20260507003436 | 17 | 45 | 0.0 | 0.0 | 0.00 | 0.00 | 0.00 | 100 | 1014.0 |
| 20260507002934 | 17 | 46 | 0.0 | 0.0 | 0.00 | 0.00 | 0.00 | 100 | 1014.1 |
| 20260507002420 | 17 | 43 | 0.0 | 0.0 | 0.00 | 0.00 | 0.00 | 100 | 1014.2 |
| 20260507001935 | 17 | 39 | 0.0 | 0.0 | 0.00 | 0.00 | 0.00 | 100 | 1014.2 |
| 20260507001505 | 17 | 37 | 0.0 | 0.0 | 0.00 | 0.00 | 0.00 | 100 | 1014.1 |
| 20260507001420 | 17 | 37 | 0.0 | 0.0 | 0.00 | 0.00 | 0.00 | 100 | 1014.1 |
| 20260507000947 | 17 | 41 | 0.0 | 0.0 | 0.00 | 0.00 | 0.00 | 100 | 1014.1 |
| 20260507000446 | 17 | 45 | 0.0 | 0.0 | 0.00 | 0.00 | 0.00 | 100 | 1014.0 |
| 20260506235930 | 17 | 41 | 0.0 | 0.0 | 0.00 | 0.00 | 0.00 | 100 | 1013.9 |
| 20260506235425 | 16 | 41 | 0.0 | 0.0 | 0.00 | 0.00 | 0.00 | 100 | 1014.0 |
| 20260506234940 | 17 | 40 | 0.0 | 0.0 | 0.00 | 0.00 | 0.00 | 100 | 1014.1 |
| 20260506234422 | 17 | 36 | 4.8 | 0.0 | 0.00 | 0.00 | 0.00 | 100 | 1014.2 |
| 20260506233936 | 17 | 38 | 4.8 | 0.0 | 0.00 | 0.00 | 0.00 | 100 | 1014.2 |
| 20260506233453 | 17 | 55 | 3.2 | 0.0 | 0.00 | 0.00 | 0.00 | 100 | 1014.2 |
| 20260506232921 | 17 | 52 | 1.6 | 0.0 | 0.00 | 0.00 | 0.00 | 100 | 1014.5 |
| 20260506232429 | 17 | 50 | 0.0 | 0.0 | 0.00 | 0.00 | 0.00 | 100 | 1014.7 |
| 20260506231923 | 17 | 51 | 0.0 | 0.0 | 0.00 | 0.00 | 0.00 | 100 | 1014.8 |
| 20260506231433 | 17 | 58 | 0.0 | 0.0 | 0.00 | 0.00 | 0.00 | 100 | 1014.7 |
| 20260506230940 | 17 | 56 | 0.0 | 0.0 | 0.00 | 0.00 | 0.00 | 100 | 1015.0 |
| 20260506230454 | 17 | 59 | 0.0 | 0.0 | 0.00 | 0.00 | 0.00 | 100 | 1014.8 |
| 20260506225928 | 17 | 151 | 3.2 | 0.0 | 0.00 | 0.00 | 0.00 | 100 | 1014.7 |
| 20260506225439 | 17 | 146 | 0.0 | 0.0 | 0.00 | 0.00 | 0.00 | 100 | 1014.9 |
| 20260506224948 | 17 | 146 | 0.0 | 0.0 | 0.00 | 0.00 | 0.00 | 100 | 1014.9 |
| 20260506224450 | 17 | 154 | 1.6 | 0.0 | 0.00 | 0.00 | 0.00 | 100 | 1015.0 |
| 20260506223926 | 17 | 150 | 3.2 | 0.0 | 0.00 | 0.00 | 0.00 | 100 | 1015.1 |
| 20260506223424 | 17 | 150 | 1.6 | 0.0 | 0.00 | 0.00 | 0.00 | 100 | 1015.2 |
| 20260506222919 | 17 | 149 | 6.4 | 0.0 | 0.00 | 0.00 | 0.00 | 100 | 1015.3 |
| 20260506222428 | 17 | 186 | 4.8 | 0.0 | 0.00 | 0.00 | 0.00 | 100 | 1015.2 |
| 20260506221925 | 18 | 191 | 0.0 | 0.0 | 0.00 | 0.00 | 0.00 | 100 | 1015.2 |
| 20260506221437 | 17 | 191 | 0.0 | 0.0 | 0.00 | 0.00 | 0.00 | 100 | 1015.3 |
| 20260506220945 | 17 | 190 | 0.0 | 0.0 | 0.00 | 0.00 | 0.00 | 100 | 1015.3 |
| 20260506220426 | 17 | 186 | 1.6 | 0.0 | 0.00 | 0.00 | 0.00 | 100 | 1015.2 |
| 20260506215937 | 17 | 189 | 4.8 | 0.0 | 0.00 | 0.00 | 0.00 | 100 | 1015.3 |
| 20260506215431 | 17 | 191 | 3.2 | 0.0 | 0.00 | 0.00 | 0.00 | 100 | 1015.4 |
| 20260506214919 | 17 | 190 | 8.0 | 0.0 | 0.00 | 0.00 | 0.00 | 100 | 1015.3 |
| 20260506214425 | 17 | 195 | 4.8 | 0.0 | 0.00 | 0.00 | 0.00 | 100 | 1015.3 |
| 20260506214019 | 17 | 199 | 4.8 | 0.0 | 0.00 | 0.00 | 0.00 | 100 | 1015.4 |
| 20260506213436 | 17 | 194 | 0.0 | 0.0 | 0.00 | 0.00 | 0.00 | 100 | 1015.3 |
| 20260506212924 | 17 | 202 | 0.0 | 0.0 | 0.00 | 0.00 | 0.00 | 100 | 1015.3 |
| 20260506212458 | 17 | 197 | 0.0 | 0.0 | 0.00 | 0.00 | 0.00 | 100 | 1015.3 |
| 20260506211950 | 17 | 203 | 0.0 | 0.0 | 0.00 | 0.00 | 0.00 | 100 | 1015.2 |
| 20260506211446 | 17 | 197 | 0.0 | 0.0 | 0.00 | 0.00 | 0.00 | 100 | 1015.3 |
| 20260506210940 | 17 | 197 | 0.0 | 0.0 | 0.00 | 0.00 | 0.00 | 100 | 1015.3 |
| 20260506210438 | 17 | 196 | 0.0 | 0.0 | 0.00 | 0.00 | 0.00 | 100 | 1015.3 |
| 20260506205935 | 17 | 197 | 0.0 | 0.0 | 0.00 | 0.00 | 0.00 | 100 | 1015.3 |
| 20260506205420 | 17 | 201 | 0.0 | 0.0 | 0.00 | 0.00 | 0.00 | 100 | 1015.3 |
| 20260506204950 | 17 | 197 | 0.0 | 0.0 | 0.00 | 0.00 | 0.00 | 100 | 1015.3 |
| 20260506204439 | 17 | 196 | 0.0 | 0.0 | 0.00 | 0.00 | 0.00 | 100 | 1015.4 |
| 20260506203943 | 17 | 194 | 1.6 | 0.0 | 0.00 | 0.00 | 0.00 | 100 | 1015.3 |
| 20260506203451 | 18 | 197 | 1.6 | 0.0 | 0.00 | 0.00 | 0.00 | 100 | 1015.5 |
| 20260506202938 | 18 | 190 | 0.0 | 0.0 | 0.00 | 0.00 | 0.00 | 100 | 1015.5 |
| 20260506202425 | 18 | 194 | 0.0 | 0.0 | 0.00 | 0.00 | 0.00 | 100 | 1015.5 |
| 20260506201938 | 18 | 186 | 0.0 | 0.0 | 0.00 | 0.00 | 0.00 | 100 | 1015.6 |
| 20260506201429 | 18 | 190 | 0.0 | 0.0 | 0.00 | 0.00 | 0.00 | 100 | 1015.6 |
| 20260506200941 | 18 | 196 | 0.0 | 0.0 | 0.00 | 0.00 | 0.00 | 100 | 1015.6 |
| 20260506200443 | 18 | 189 | 0.0 | 0.0 | 0.00 | 0.00 | 0.00 | 100 | 1015.5 |
| 20260506200019 | 18 | 192 | 0.0 | 0.0 | 0.00 | 0.00 | 0.00 | 100 | 1015.6 |
| 20260506195936 | 18 | 192 | 0.0 | 0.0 | 0.00 | 0.00 | 0.00 | 100 | 1015.6 |
| 20260506195448 | 18 | 192 | 0.0 | 0.0 | 0.00 | 0.00 | 0.00 | 100 | 1015.7 |
| 20260506194959 | 18 | 193 | 0.0 | 0.0 | 0.00 | 0.00 | 0.00 | 100 | 1015.8 |
| 20260506194454 | 18 | 190 | 0.0 | 0.0 | 0.00 | 0.00 | 0.00 | 100 | 1015.9 |
| 20260506194004 | 18 | 188 | 6.4 | 0.0 | 0.00 | 0.00 | 0.00 | 100 | 1015.9 |
| 20260506193921 | 18 | 188 | 6.4 | 0.0 | 0.00 | 0.00 | 0.00 | 100 | 1015.9 |
| 20260506193433 | 18 | 188 | 6.4 | 0.0 | 0.00 | 0.00 | 0.00 | 100 | 1015.9 |
| 20260506192928 | 18 | 185 | 4.8 | 0.0 | 0.00 | 0.00 | 0.00 | 100 | 1015.8 |
| 20260506192429 | 18 | 184 | 4.8 | 0.0 | 0.00 | 0.00 | 0.00 | 100 | 1016.0 |
| 20260506191920 | 18 | 183 | 3.2 | 0.0 | 0.00 | 0.00 | 0.00 | 100 | 1015.8 |
| 20260506191436 | 18 | 183 | 3.2 | 0.0 | 0.00 | 0.00 | 0.00 | 100 | 1015.6 |
| 20260506191023 | 18 | 184 | 3.2 | 0.0 | 0.00 | 0.00 | 0.00 | 100 | 1015.6 |
| 20260506190437 | 18 | 184 | 6.4 | 0.0 | 0.00 | 0.00 | 0.00 | 100 | 1015.5 |
| 20260506185934 | 18 | 191 | 3.2 | 0.0 | 0.00 | 0.00 | 0.00 | 100 | 1015.4 |
| 20260506185423 | 18 | 185 | 1.6 | 0.0 | 0.00 | 0.00 | 0.00 | 100 | 1015.0 |
| 20260506184939 | 18 | 185 | 4.8 | 0.0 | 0.00 | 0.00 | 0.00 | 100 | 1015.0 |
| 20260506184427 | 18 | 186 | 3.2 | 0.0 | 0.00 | 0.00 | 0.00 | 100 | 1015.1 |
| 20260506183939 | 18 | 191 | 0.0 | 0.0 | 0.00 | 0.00 | 0.00 | 100 | 1015.0 |